| time (UTC) | temp F | wind direction | speed MPH | gust MPH | rain 1hr in | rain 24hr in | rain mn in | humidity % | barometer mb |
| 20260504050456 | 58 | 203 | 2.0 | 4.0 | 0.00 | 0.00 | 0.00 | 63 | 1013.6 |
| 20260504045953 | 59 | 257 | 0.0 | 2.0 | 0.00 | 0.00 | 0.00 | 62 | 1013.6 |
| 20260504045449 | 59 | 118 | 1.0 | 2.0 | 0.00 | 0.00 | 0.00 | 62 | 1013.8 |
| 20260504044945 | 59 | 257 | 0.0 | 6.0 | 0.00 | 0.00 | 0.00 | 62 | 1013.8 |
| 20260504044443 | 59 | 204 | 3.0 | 4.0 | 0.00 | 0.00 | 0.00 | 61 | 1013.8 |
| 20260504043940 | 59 | 247 | 1.0 | 3.0 | 0.00 | 0.00 | 0.00 | 63 | 1013.8 |
| 20260504043437 | 59 | 260 | 0.0 | 2.0 | 0.00 | 0.00 | 0.00 | 63 | 1013.7 |
| 20260504042934 | 59 | 244 | 0.0 | 4.0 | 0.00 | 0.00 | 0.00 | 63 | 1013.7 |
| 20260504042431 | 59 | 245 | 2.0 | 3.0 | 0.00 | 0.00 | 0.00 | 63 | 1013.9 |
| 20260504041927 | 59 | 182 | 2.0 | 3.0 | 0.00 | 0.00 | 0.00 | 63 | 1014.1 |
| 20260504041424 | 58 | 139 | 4.0 | 6.0 | 0.00 | 0.00 | 0.00 | 63 | 1014.2 |
| 20260504040920 | 59 | 178 | 0.0 | 4.0 | 0.00 | 0.00 | 0.00 | 64 | 1014.3 |
| 20260504040418 | 58 | 189 | 0.0 | 3.0 | 0.00 | 0.00 | 0.00 | 65 | 1014.3 |
| 20260504035908 | 59 | 204 | 0.0 | 6.0 | 0.00 | 0.00 | 0.00 | 64 | 1014.4 |
| 20260504035406 | 58 | 197 | 0.0 | 2.0 | 0.00 | 0.00 | 0.00 | 63 | 1014.5 |
| 20260504034902 | 58 | 205 | 1.0 | 2.0 | 0.00 | 0.00 | 0.00 | 64 | 1014.3 |
| 20260504034400 | 58 | 158 | 2.0 | 3.0 | 0.00 | 0.00 | 0.00 | 63 | 1014.4 |
| 20260504033857 | 59 | 187 | 2.0 | 7.0 | 0.00 | 0.00 | 0.00 | 63 | 1014.6 |
| 20260504033355 | 58 | 147 | 4.0 | 6.0 | 0.00 | 0.00 | 0.00 | 63 | 1014.4 |
| 20260504032851 | 59 | 149 | 0.0 | 4.0 | 0.00 | 0.00 | 0.00 | 62 | 1014.3 |
| 20260504032348 | 59 | 143 | 1.0 | 3.0 | 0.00 | 0.00 | 0.00 | 62 | 1014.6 |
| 20260504031845 | 59 | 187 | 0.0 | 4.0 | 0.00 | 0.00 | 0.00 | 63 | 1014.9 |
| 20260504031342 | 59 | 127 | 2.0 | 4.0 | 0.00 | 0.00 | 0.00 | 62 | 1014.8 |
| 20260504030838 | 59 | 152 | 2.0 | 3.0 | 0.00 | 0.00 | 0.00 | 62 | 1014.9 |
| 20260504030336 | 59 | 160 | 0.0 | 2.0 | 0.00 | 0.00 | 0.00 | 62 | 1015.0 |
| 20260504025832 | 59 | 183 | 0.0 | 2.0 | 0.00 | 0.00 | 0.00 | 63 | 1015.1 |
| 20260504025329 | 59 | 174 | 3.0 | 4.0 | 0.00 | 0.00 | 0.00 | 62 | 1014.9 |
| 20260504024825 | 58 | 142 | 0.0 | 1.0 | 0.00 | 0.00 | 0.00 | 63 | 1015.0 |
| 20260504024322 | 59 | 147 | 0.0 | 1.0 | 0.00 | 0.00 | 0.00 | 63 | 1015.1 |
| 20260504023819 | 58 | 151 | 0.0 | 2.0 | 0.00 | 0.00 | 0.00 | 64 | 1015.2 |
| 20260504023315 | 58 | 108 | 0.0 | 2.0 | 0.00 | 0.00 | 0.00 | 65 | 1015.3 |
| 20260504022811 | 58 | 160 | 1.0 | 1.0 | 0.00 | 0.00 | 0.00 | 64 | 1015.1 |
| 20260504022308 | 59 | 166 | 0.0 | 1.0 | 0.00 | 0.00 | 0.00 | 64 | 1015.4 |
| 20260504021804 | 58 | 132 | 0.0 | 2.0 | 0.00 | 0.00 | 0.00 | 63 | 1015.3 |
| 20260504021303 | 58 | 133 | 0.0 | 0.0 | 0.00 | 0.00 | 0.00 | 65 | 1015.1 |
| 20260504020759 | 59 | 134 | 0.0 | 2.0 | 0.00 | 0.00 | 0.00 | 63 | 1015.2 |
| 20260504020256 | 59 | 184 | 0.0 | 0.0 | 0.00 | 0.00 | 0.00 | 63 | 1015.1 |
| 20260504015752 | 59 | 152 | 0.0 | 0.0 | 0.00 | 0.00 | 0.00 | 62 | 1015.1 |
| 20260504015248 | 59 | 153 | 0.0 | 1.0 | 0.00 | 0.00 | 0.00 | 61 | 1015.2 |
| 20260504014744 | 58 | 161 | 0.0 | 0.0 | 0.00 | 0.00 | 0.00 | 63 | 1015.1 |
| 20260504014241 | 58 | 251 | 0.0 | 0.0 | 0.00 | 0.00 | 0.00 | 65 | 1015.3 |
| 20260504013739 | 58 | 251 | 0.0 | 0.0 | 0.00 | 0.00 | 0.00 | 62 | 1015.2 |
| 20260504013236 | 59 | 251 | 0.0 | 0.0 | 0.00 | 0.00 | 0.00 | 61 | 1015.2 |
| 20260504012732 | 59 | 282 | 0.0 | 0.0 | 0.00 | 0.00 | 0.00 | 60 | 1015.5 |
| 20260504012230 | 59 | 282 | 0.0 | 0.0 | 0.00 | 0.00 | 0.00 | 59 | 1015.2 |
| 20260504011727 | 59 | 206 | 0.0 | 0.0 | 0.00 | 0.00 | 0.00 | 58 | 1015.1 |
| 20260504011224 | 60 | 282 | 0.0 | 0.0 | 0.00 | 0.00 | 0.00 | 59 | 1015.1 |
| 20260504010720 | 61 | 282 | 0.0 | 0.0 | 0.00 | 0.00 | 0.00 | 55 | 1015.5 |
| 20260504010215 | 61 | 286 | 0.0 | 0.0 | 0.00 | 0.00 | 0.00 | 54 | 1015.1 |
| 20260504005712 | 61 | 286 | 0.0 | 0.0 | 0.00 | 0.00 | 0.00 | 53 | 1015.2 |
| 20260504005209 | 62 | 286 | 0.0 | 0.0 | 0.00 | 0.00 | 0.00 | 53 | 1015.1 |
| 20260504004707 | 62 | 269 | 0.0 | 2.0 | 0.00 | 0.00 | 0.00 | 53 | 1015.2 |
| 20260504004204 | 62 | 303 | 0.0 | 0.0 | 0.00 | 0.00 | 0.00 | 51 | 1015.1 |
| 20260504003701 | 63 | 241 | 1.0 | 3.0 | 0.00 | 0.00 | 0.00 | 51 | 1014.9 |
| 20260504003157 | 63 | 149 | 0.0 | 1.0 | 0.00 | 0.00 | 0.00 | 50 | 1014.6 |
| 20260504002653 | 63 | 185 | 0.0 | 4.0 | 0.00 | 0.00 | 0.00 | 50 | 1014.8 |
| 20260504002151 | 64 | 293 | 0.0 | 6.0 | 0.00 | 0.00 | 0.00 | 49 | 1014.5 |
| 20260504001649 | 64 | 126 | 3.0 | 8.0 | 0.00 | 0.00 | 0.00 | 49 | 1014.6 |
| 20260504001144 | 64 | 287 | 0.0 | 4.0 | 0.00 | 0.00 | 0.00 | 49 | 1014.5 |
| 20260504000642 | 64 | 220 | 2.0 | 3.0 | 0.00 | 0.00 | 0.00 | 49 | 1014.4 |
| 20260504000139 | 64 | 294 | 0.0 | 8.0 | 0.00 | 0.00 | 0.00 | 49 | 1014.4 |
| 20260503235637 | 64 | 249 | 1.0 | 3.0 | 0.00 | 0.00 | 0.00 | 50 | 1014.5 |
| 20260503235133 | 64 | 172 | 2.0 | 7.0 | 0.00 | 0.00 | 0.00 | 49 | 1014.4 |
| 20260503234631 | 64 | 229 | 7.0 | 9.0 | 0.00 | 0.00 | 0.00 | 48 | 1014.7 |
| 20260503234130 | 65 | 210 | 2.0 | 7.0 | 0.00 | 0.00 | 0.00 | 49 | 1014.7 |
| 20260503233626 | 64 | 236 | 1.0 | 2.0 | 0.00 | 0.00 | 0.00 | 48 | 1014.6 |
| 20260503233122 | 65 | 231 | 1.0 | 8.0 | 0.00 | 0.00 | 0.00 | 49 | 1014.6 |
| 20260503232619 | 65 | 197 | 3.0 | 7.0 | 0.00 | 0.00 | 0.00 | 48 | 1014.7 |
| 20260503232117 | 65 | 240 | 0.0 | 7.0 | 0.00 | 0.00 | 0.00 | 48 | 1014.7 |
| 20260503231615 | 65 | 224 | 2.0 | 9.0 | 0.00 | 0.00 | 0.00 | 48 | 1014.9 |
| 20260503231111 | 65 | 247 | 1.0 | 9.0 | 0.00 | 0.00 | 0.00 | 47 | 1014.8 |
| 20260503230609 | 65 | 224 | 2.0 | 4.0 | 0.00 | 0.00 | 0.00 | 47 | 1015.0 |
| 20260503230105 | 65 | 237 | 2.0 | 6.0 | 0.00 | 0.00 | 0.00 | 49 | 1015.0 |
| 20260503225603 | 65 | 158 | 0.0 | 10.0 | 0.00 | 0.00 | 0.00 | 48 | 1015.1 |
| 20260503225057 | 65 | 279 | 3.0 | 13.0 | 0.00 | 0.00 | 0.00 | 48 | 1015.1 |
| 20260503224555 | 66 | 195 | 2.0 | 4.0 | 0.00 | 0.00 | 0.00 | 48 | 1015.2 |
| 20260503224053 | 66 | 269 | 3.0 | 8.0 | 0.00 | 0.00 | 0.00 | 48 | 1015.4 |
| 20260503223550 | 66 | 165 | 3.0 | 8.0 | 0.00 | 0.00 | 0.00 | 48 | 1015.4 |
| 20260503223045 | 66 | 237 | 1.0 | 9.0 | 0.00 | 0.00 | 0.00 | 47 | 1015.5 |
| 20260503222544 | 66 | 181 | 1.0 | 4.0 | 0.00 | 0.00 | 0.00 | 47 | 1015.6 |
| 20260503222042 | 66 | 267 | 3.0 | 4.0 | 0.00 | 0.00 | 0.00 | 48 | 1015.8 |
| 20260503221539 | 66 | 227 | 4.0 | 8.0 | 0.00 | 0.00 | 0.00 | 47 | 1015.6 |
| 20260503221037 | 66 | 148 | 2.0 | 11.0 | 0.00 | 0.00 | 0.00 | 48 | 1015.9 |
| 20260503220533 | 67 | 203 | 3.0 | 7.0 | 0.00 | 0.00 | 0.00 | 46 | 1015.8 |
| 20260503220030 | 66 | 135 | 2.0 | 8.0 | 0.00 | 0.00 | 0.00 | 46 | 1015.9 |
| 20260503215527 | 66 | 231 | 3.0 | 7.0 | 0.00 | 0.00 | 0.00 | 47 | 1015.9 |
| 20260503215024 | 67 | 228 | 10.0 | 14.0 | 0.00 | 0.00 | 0.00 | 44 | 1016.2 |
| 20260503214522 | 67 | 256 | 4.0 | 8.0 | 0.00 | 0.00 | 0.00 | 46 | 1016.2 |
| 20260503214018 | 67 | 233 | 2.0 | 4.0 | 0.00 | 0.00 | 0.00 | 45 | 1016.4 |
| 20260503213517 | 67 | 198 | 0.0 | 9.0 | 0.00 | 0.00 | 0.00 | 47 | 1016.5 |
| 20260503213013 | 67 | 327 | 3.0 | 9.0 | 0.00 | 0.00 | 0.00 | 45 | 1016.6 |
| 20260503212511 | 67 | 191 | 4.0 | 11.0 | 0.00 | 0.00 | 0.00 | 48 | 1016.5 |
| 20260503212008 | 67 | 241 | 3.0 | 7.0 | 0.00 | 0.00 | 0.00 | 46 | 1016.6 |
| 20260503211505 | 67 | 141 | 2.0 | 4.0 | 0.00 | 0.00 | 0.00 | 46 | 1016.7 |
| 20260503211000 | 68 | 264 | 4.0 | 7.0 | 0.00 | 0.00 | 0.00 | 46 | 1016.8 |
| 20260503210457 | 68 | 276 | 4.0 | 8.0 | 0.00 | 0.00 | 0.00 | 45 | 1017.1 |
| 20260503205952 | 67 | 210 | 6.0 | 8.0 | 0.00 | 0.00 | 0.00 | 46 | 1017.2 |
| 20260503205449 | 68 | 204 | 2.0 | 6.0 | 0.00 | 0.00 | 0.00 | 47 | 1017.5 |
| 20260503204945 | 67 | 257 | 2.0 | 11.0 | 0.00 | 0.00 | 0.00 | 47 | 1017.2 |
| 20260503204443 | 67 | 222 | 4.0 | 9.0 | 0.00 | 0.00 | 0.00 | 46 | 1017.3 |
| 20260503203939 | 67 | 268 | 3.0 | 8.0 | 0.00 | 0.00 | 0.00 | 44 | 1017.6 |
| 20260503203437 | 67 | 152 | 3.0 | 9.0 | 0.00 | 0.00 | 0.00 | 46 | 1017.7 |
| 20260503202934 | 67 | 152 | 1.0 | 8.0 | 0.00 | 0.00 | 0.00 | 47 | 1017.9 |
| 20260503202432 | 68 | 320 | 4.0 | 10.0 | 0.00 | 0.00 | 0.00 | 45 | 1018.2 |
| 20260503201930 | 66 | 100 | 2.0 | 6.0 | 0.00 | 0.00 | 0.00 | 45 | 1018.1 |
| 20260503201427 | 66 | 31 | 0.0 | 10.0 | 0.00 | 0.00 | 0.00 | 48 | 1018.3 |
| 20260503200924 | 66 | 220 | 6.0 | 15.0 | 0.00 | 0.00 | 0.00 | 46 | 1018.4 |
| 20260503200420 | 66 | 315 | 1.0 | 7.0 | 0.00 | 0.00 | 0.00 | 47 | 1018.4 |
| 20260503195917 | 66 | 219 | 2.0 | 8.0 | 0.00 | 0.00 | 0.00 | 46 | 1018.4 |
| 20260503195415 | 67 | 143 | 7.0 | 10.0 | 0.00 | 0.00 | 0.00 | 44 | 1018.5 |
| 20260503194911 | 66 | 171 | 2.0 | 7.0 | 0.00 | 0.00 | 0.00 | 49 | 1018.7 |
| 20260503194408 | 66 | 136 | 1.0 | 6.0 | 0.00 | 0.00 | 0.00 | 47 | 1018.8 |
| 20260503193904 | 65 | 141 | 4.0 | 7.0 | 0.00 | 0.00 | 0.00 | 48 | 1018.7 |
| 20260503193359 | 66 | 182 | 3.0 | 8.0 | 0.00 | 0.00 | 0.00 | 46 | 1018.8 |
| 20260503192855 | 66 | 252 | 4.0 | 10.0 | 0.00 | 0.00 | 0.00 | 47 | 1019.1 |
| 20260503192351 | 66 | 255 | 4.0 | 9.0 | 0.00 | 0.00 | 0.00 | 50 | 1019.0 |
| 20260503191848 | 65 | 278 | 2.0 | 6.0 | 0.00 | 0.00 | 0.00 | 48 | 1019.3 |
| 20260503191345 | 66 | 139 | 3.0 | 9.0 | 0.00 | 0.00 | 0.00 | 48 | 1019.1 |
| 20260503190841 | 64 | 274 | 2.0 | 11.0 | 0.00 | 0.00 | 0.00 | 50 | 1019.2 |
| 20260503190338 | 65 | 235 | 2.0 | 4.0 | 0.00 | 0.00 | 0.00 | 47 | 1019.5 |
| 20260503185836 | 66 | 191 | 4.0 | 6.0 | 0.00 | 0.00 | 0.00 | 48 | 1019.6 |
| 20260503185332 | 66 | 175 | 4.0 | 8.0 | 0.00 | 0.00 | 0.00 | 47 | 1019.7 |
| 20260503184831 | 65 | 223 | 2.0 | 4.0 | 0.00 | 0.00 | 0.00 | 46 | 1019.8 |
| 20260503184327 | 64 | 208 | 1.0 | 8.0 | 0.00 | 0.00 | 0.00 | 49 | 1020.0 |
| 20260503183823 | 64 | 260 | 4.0 | 4.0 | 0.00 | 0.00 | 0.00 | 48 | 1020.2 |
| 20260503183321 | 64 | 200 | 4.0 | 13.0 | 0.00 | 0.00 | 0.00 | 48 | 1020.2 |
| 20260503182818 | 64 | 255 | 6.0 | 9.0 | 0.00 | 0.00 | 0.00 | 48 | 1020.3 |
| 20260503182317 | 65 | 246 | 4.0 | 6.0 | 0.00 | 0.00 | 0.00 | 51 | 1020.2 |
| 20260503181814 | 68 | 135 | 6.0 | 11.0 | 0.00 | 0.00 | 0.00 | 45 | 1020.3 |
| 20260503181311 | 66 | 325 | 0.0 | 3.0 | 0.00 | 0.00 | 0.00 | 49 | 1020.6 |
| 20260503180807 | 64 | 267 | 2.0 | 4.0 | 0.00 | 0.00 | 0.00 | 51 | 1020.6 |
| 20260503180306 | 64 | 206 | 4.0 | 4.0 | 0.00 | 0.00 | 0.00 | 51 | 1020.8 |
| 20260503175801 | 66 | 212 | 4.0 | 6.0 | 0.00 | 0.00 | 0.00 | 45 | 1020.9 |
| 20260503175300 | 65 | 115 | 0.0 | 6.0 | 0.00 | 0.00 | 0.00 | 46 | 1021.0 |
| 20260503174755 | 64 | 241 | 2.0 | 8.0 | 0.00 | 0.00 | 0.00 | 51 | 1021.1 |
| 20260503174253 | 63 | 221 | 5.0 | 8.0 | 0.00 | 0.00 | 0.00 | 48 | 1021.1 |
| 20260503173748 | 64 | 264 | 4.0 | 6.0 | 0.00 | 0.00 | 0.00 | 48 | 1021.4 |
| 20260503173244 | 64 | 335 | 4.0 | 6.0 | 0.00 | 0.00 | 0.00 | 47 | 1021.5 |
| 20260503172741 | 63 | 204 | 1.0 | 3.0 | 0.00 | 0.00 | 0.00 | 49 | 1021.5 |
| 20260503172238 | 62 | 225 | 5.0 | 9.0 | 0.00 | 0.00 | 0.00 | 46 | 1021.6 |
| 20260503171735 | 62 | 320 | 0.0 | 6.0 | 0.00 | 0.00 | 0.00 | 48 | 1021.6 |
| 20260503171232 | 64 | 264 | 2.0 | 7.0 | 0.00 | 0.00 | 0.00 | 47 | 1021.7 |
| 20260503170729 | 64 | 224 | 4.0 | 6.0 | 0.00 | 0.00 | 0.00 | 45 | 1021.8 |
| 20260503170226 | 65 | 202 | 1.0 | 4.0 | 0.00 | 0.00 | 0.00 | 46 | 1021.9 |
| 20260503160148 | 60 | 144 | 0.0 | 6.0 | 0.00 | 0.00 | 0.00 | 53 | 1022.5 |
| 20260503150618 | 57 | 289 | 0.0 | 3.0 | 0.00 | 0.00 | 0.00 | 58 | 1023.1 |
| 20260503150114 | 57 | 216 | 3.0 | 7.0 | 0.00 | 0.00 | 0.00 | 53 | 1023.1 |
| 20260503131008 | 49 | 206 | 0.0 | 2.0 | 0.00 | 0.00 | 0.00 | 76 | 1023.3 |
| 20260503130505 | 48 | 189 | 0.0 | 1.0 | 0.00 | 0.00 | 0.00 | 78 | 1023.2 |
| 20260503110401 | 40 | 322 | 0.0 | 0.0 | 0.00 | 0.00 | 0.00 | 92 | 1022.4 |
| 20260503090252 | 43 | 321 | 0.0 | 0.0 | 0.00 | 0.00 | 0.00 | 79 | 1022.5 |
| 20260503081225 | 40 | 356 | 0.0 | 0.0 | 0.00 | 0.00 | 0.00 | 87 | 1022.2 |
| 20260503080721 | 40 | 356 | 0.0 | 0.0 | 0.00 | 0.00 | 0.00 | 87 | 1022.2 |
| 20260503080218 | 40 | 356 | 0.0 | 0.0 | 0.00 | 0.00 | 0.00 | 85 | 1022.4 |
| 20260503072654 | 39 | 356 | 0.0 | 0.0 | 0.00 | 0.00 | 0.00 | 81 | 1022.1 |
| 20260503072151 | 39 | 356 | 0.0 | 0.0 | 0.00 | 0.00 | 0.00 | 80 | 1022.0 |
| 20260503071648 | 39 | 356 | 0.0 | 0.0 | 0.00 | 0.00 | 0.00 | 80 | 1022.0 |
| 20260503071145 | 40 | 356 | 0.0 | 0.0 | 0.00 | 0.00 | 0.00 | 80 | 1022.2 |
| 20260503070642 | 40 | 356 | 0.0 | 0.0 | 0.00 | 0.00 | 0.00 | 77 | 1022.0 |
| 20260503070140 | 40 | 356 | 0.0 | 0.0 | 0.00 | 0.00 | 0.00 | 77 | 1022.0 |